Date,Time,Wetness (Wet Dry or Ice),Wind Speed (m/s),Temperature (C),Humidity (%),Pressure (mb),Radiation (W/m^2)
2020-09-18,22:15:00,DRY,2.95,14.40,26.0,777.00,1.4
2020-09-18,22:20:00,DRY,2.87,14.37,26.0,777.00,1.5
2020-09-18,22:25:00,DRY,3.50,14.65,25.5,777.00,1.2
2020-09-18,22:30:00,DRY,2.60,14.70,25.0,777.00,1.2
2020-09-18,22:35:00,DRY,2.80,14.60,26.0,777.00,1.9
2020-09-18,22:40:00,DRY,2.67,14.53,26.0,777.00,0.4
2020-09-18,22:45:00,DRY,1.95,14.40,26.0,777.00,0.8
2020-09-18,22:50:00,DRY,2.77,14.43,26.3,777.00,1.1
2020-09-18,22:55:00,DRY,1.70,14.45,26.5,777.00,1.2
2020-09-18,23:00:00,DRY,2.47,14.53,27.0,777.00,0.7
2020-09-18,23:05:00,DRY,2.55,14.50,27.0,777.00,1.4
2020-09-18,23:10:00,DRY,2.67,14.60,27.0,777.00,0.8
2020-09-18,23:15:00,DRY,3.75,14.75,27.0,777.00,1.3
2020-09-18,23:20:00,DRY,3.03,14.67,27.7,777.00,1.5
2020-09-18,23:25:00,DRY,2.50,14.55,28.0,777.00,1.2
2020-09-18,23:30:00,DRY,3.67,14.60,28.0,777.00,1.0
2020-09-18,23:35:00,DRY,3.30,14.55,28.0,777.00,1.5
2020-09-18,23:40:00,DRY,3.77,14.70,28.0,777.00,0.9
2020-09-18,23:45:00,DRY,3.45,14.65,28.0,777.00,1.5
2020-09-18,23:50:00,DRY,3.57,14.77,28.0,777.00,1.3
2020-09-18,23:55:00,DRY,3.15,14.75,28.0,777.00,1.4
2020-09-19,00:00:00,DRY,3.07,14.73,28.0,777.00,0.9
2020-09-19,00:05:00,DRY,2.85,14.75,28.0,777.00,1.4
2020-09-19,00:10:00,DRY,3.67,14.90,28.0,777.00,0.9
2020-09-19,00:15:00,DRY,2.55,14.75,28.0,777.00,1.2
2020-09-19,00:20:00,DRY,3.13,14.80,28.0,777.00,0.9
2020-09-19,00:25:00,DRY,2.40,14.80,28.0,777.00,1.1
2020-09-19,00:30:00,DRY,4.10,14.73,27.7,777.00,1.3
2020-09-19,00:35:00,DRY,3.60,14.55,28.0,777.00,1.9
2020-09-19,00:40:00,DRY,3.40,14.33,28.3,777.00,1.9
2020-09-19,00:45:00,DRY,3.35,14.25,28.0,777.00,0.8
2020-09-19,00:50:00,DRY,2.43,14.23,29.0,777.00,0.4
2020-09-19,00:55:00,DRY,2.95,14.05,29.0,777.00,1.4
2020-09-19,01:00:00,DRY,2.87,14.40,28.3,777.00,1.5
2020-09-19,01:05:00,DRY,3.10,14.35,29.0,777.00,1.1
2020-09-19,01:10:00,DRY,2.93,14.30,28.7,777.00,1.5
2020-09-19,01:15:00,DRY,0.90,14.25,29.0,777.00,1.1
2020-09-19,01:20:00,DRY,2.03,14.07,29.0,777.00,1.8
2020-09-19,01:25:00,DRY,2.45,14.20,29.5,776.50,1.0
2020-09-19,01:30:00,DRY,3.90,14.00,30.0,776.67,1.0
2020-09-19,01:35:00,DRY,3.20,14.10,30.0,777.00,0.9
2020-09-19,01:40:00,DRY,3.13,13.97,29.0,776.33,1.4
2020-09-19,01:45:00,DRY,4.15,14.00,29.0,776.50,1.3
2020-09-19,01:50:00,DRY,3.75,13.95,29.5,776.00,1.1
2020-09-19,01:55:00,DRY,4.20,13.90,29.0,776.00,1.2
2020-09-19,02:00:00,DRY,2.70,13.93,29.3,776.00,1.4
2020-09-19,02:05:00,DRY,2.85,13.85,29.5,776.00,0.7
2020-09-19,02:10:00,DRY,3.40,13.90,29.0,776.00,1.1
2020-09-19,02:15:00,DRY,2.25,13.95,29.0,776.00,1.8
2020-09-19,02:20:00,DRY,2.80,14.07,29.0,776.00,1.0
2020-09-19,02:25:00,DRY,3.30,14.10,29.0,776.00,1.3
2020-09-19,02:30:00,DRY,3.50,14.10,29.0,776.00,1.4
2020-09-19,02:35:00,DRY,2.80,13.90,29.0,776.00,1.6
2020-09-19,02:40:00,DRY,2.93,13.90,29.0,776.00,0.7
2020-09-19,02:45:00,DRY,3.25,13.85,29.0,776.00,1.5
2020-09-19,02:50:00,DRY,3.07,14.07,28.7,776.00,1.1
2020-09-19,02:55:00,DRY,3.30,14.10,28.0,776.00,1.6
2020-09-19,03:00:00,DRY,3.03,13.97,27.3,776.00,0.7
2020-09-19,03:05:00,DRY,2.65,14.20,26.0,776.00,1.5
2020-09-19,03:10:00,DRY,3.10,14.03,27.0,776.00,0.9
2020-09-19,03:15:00,DRY,3.80,14.10,27.5,776.00,1.1
2020-09-19,03:20:00,DRY,2.77,14.00,27.3,776.00,0.9
2020-09-19,03:25:00,DRY,2.25,13.95,26.0,776.00,0.8
2020-09-19,03:30:00,DRY,2.03,14.03,26.0,776.00,1.8
2020-09-19,03:35:00,DRY,2.25,14.25,26.5,776.00,1.2
2020-09-19,03:40:00,DRY,0.97,14.20,24.7,776.00,1.6
2020-09-19,03:45:00,DRY,1.55,14.00,25.5,776.00,0.8
2020-09-19,03:50:00,DRY,1.10,14.13,23.3,776.00,1.0
2020-09-19,03:55:00,DRY,1.05,14.00,23.0,776.00,1.4
2020-09-19,04:00:00,DRY,1.07,13.87,22.3,776.00,1.0
2020-09-19,04:05:00,DRY,1.95,14.15,21.5,776.00,1.1
2020-09-19,04:10:00,DRY,1.20,14.13,21.3,776.00,1.7
2020-09-19,04:15:00,DRY,1.95,14.00,22.5,776.00,1.6
2020-09-19,04:20:00,DRY,2.00,14.03,23.0,776.00,1.2
2020-09-19,04:25:00,DRY,0.70,14.05,22.5,776.00,1.2
2020-09-19,04:30:00,DRY,1.33,13.90,22.0,776.00,1.3
2020-09-19,04:35:00,DRY,1.60,14.05,22.0,776.00,1.2
2020-09-19,04:40:00,DRY,1.10,13.93,22.0,776.00,1.3
2020-09-19,04:45:00,DRY,1.15,14.00,22.0,776.00,1.2
2020-09-19,04:50:00,DRY,1.23,13.63,22.0,776.00,1.5
2020-09-19,04:55:00,DRY,0.90,13.90,19.5,776.00,1.5
2020-09-19,05:00:00,DRY,1.77,14.53,17.7,776.00,1.7
2020-09-19,05:05:00,DRY,1.65,14.45,17.5,776.00,1.3
2020-09-19,05:10:00,DRY,1.93,14.93,18.0,776.00,1.8
2020-09-19,05:15:00,DRY,1.45,14.95,16.5,776.00,2.0
2020-09-19,05:20:00,DRY,2.07,14.70,16.7,776.00,2.0
2020-09-19,05:25:00,DRY,1.90,14.80,18.0,776.00,2.0
2020-09-19,05:30:00,DRY,2.43,15.03,18.3,776.00,0.6
2020-09-19,05:35:00,DRY,1.95,15.00,15.0,776.00,1.2
2020-09-19,05:40:00,DRY,1.67,14.70,17.7,776.00,1.1
2020-09-19,05:45:00,DRY,2.55,14.90,19.5,776.00,1.1
2020-09-19,05:50:00,DRY,2.23,15.23,16.0,776.67,0.9
2020-09-19,05:55:00,DRY,2.55,15.15,18.5,776.50,1.2
2020-09-19,06:00:00,DRY,2.53,15.23,20.7,777.00,1.4
2020-09-19,06:05:00,DRY,2.25,15.05,22.0,777.00,1.8
2020-09-19,06:10:00,DRY,3.10,15.13,23.0,777.00,1.0
2020-09-19,06:15:00,DRY,2.75,15.10,23.0,777.00,1.6
2020-09-19,06:20:00,DRY,1.40,14.50,22.3,777.00,1.2
2020-09-19,06:25:00,DRY,2.70,14.50,24.5,777.00,0.4
2020-09-19,06:30:00,DRY,2.47,14.57,25.3,777.00,1.3
2020-09-19,06:35:00,DRY,2.85,14.85,26.0,777.00,2.0
2020-09-19,06:40:00,DRY,2.47,14.80,24.7,777.00,1.1
2020-09-19,06:45:00,DRY,2.90,14.85,25.0,777.00,1.9
2020-09-19,06:50:00,DRY,3.43,14.93,27.0,777.00,2.7
2020-09-19,06:55:00,DRY,2.50,14.90,28.0,777.00,5.8
2020-09-19,07:00:00,DRY,2.23,14.60,28.7,777.00,8.3
2020-09-19,07:05:00,DRY,2.45,14.60,28.5,777.00,11.7
2020-09-19,07:10:00,DRY,2.30,14.67,28.7,777.00,17.3
2020-09-19,07:15:00,DRY,2.05,14.65,29.0,777.00,22.5
2020-09-19,07:20:00,DRY,2.27,14.67,29.0,777.00,26.9
2020-09-19,07:25:00,DRY,2.25,14.85,29.0,777.00,29.2
2020-09-19,07:30:00,DRY,2.30,14.87,28.0,777.00,29.9
2020-09-19,07:35:00,DRY,1.55,14.60,28.5,777.00,28.9
2020-09-19,07:40:00,DRY,1.53,14.73,29.3,777.00,30.9
2020-09-19,07:45:00,DRY,2.45,15.00,25.0,777.00,32.0
2020-09-19,07:50:00,DRY,2.37,15.13,24.0,777.00,33.3
2020-09-19,07:55:00,DRY,1.75,15.05,24.5,777.00,35.3
2020-09-19,08:00:00,DRY,2.20,15.20,24.0,777.00,79.9
2020-09-19,08:05:00,DRY,1.55,15.30,24.0,777.00,277.6
2020-09-19,08:10:00,DRY,2.17,15.60,23.0,777.00,300.0
2020-09-19,08:15:00,DRY,2.20,15.70,24.0,777.00,320.4
2020-09-19,08:20:00,DRY,2.63,15.83,22.3,777.33,343.0
2020-09-19,08:25:00,DRY,2.85,16.00,22.5,777.00,364.3
2020-09-19,08:30:00,DRY,2.27,16.20,22.0,777.00,386.6
2020-09-19,08:35:00,DRY,3.60,16.30,23.0,777.00,408.9
2020-09-19,08:40:00,DRY,2.87,16.43,22.0,777.00,431.2
2020-09-19,08:45:00,DRY,2.25,16.50,22.5,777.00,450.2
2020-09-19,08:50:00,DRY,2.67,16.67,22.7,777.00,468.7
2020-09-19,08:55:00,DRY,2.55,16.85,23.0,777.00,488.6
2020-09-19,09:00:00,DRY,1.80,16.93,23.0,777.00,509.1
2020-09-19,09:05:00,DRY,2.15,17.10,23.5,777.00,529.0
2020-09-19,09:10:00,DRY,2.43,17.23,23.7,777.00,548.6
2020-09-19,09:15:00,DRY,3.00,17.30,24.0,777.00,567.5
2020-09-19,09:20:00,DRY,2.07,17.40,24.0,777.00,587.1
2020-09-19,09:25:00,DRY,2.85,17.45,23.0,777.00,607.5
2020-09-19,09:30:00,DRY,1.93,17.63,23.7,777.00,626.7
2020-09-19,09:35:00,DRY,3.55,17.60,23.5,777.50,646.4
2020-09-19,09:40:00,DRY,2.60,17.77,23.7,777.67,666.1
2020-09-19,09:45:00,DRY,2.10,18.05,23.0,777.50,682.6
2020-09-19,09:50:00,DRY,2.63,18.03,22.7,778.00,702.1
2020-09-19,09:55:00,DRY,1.95,17.95,22.5,778.00,719.5
2020-09-19,10:00:00,DRY,2.33,18.30,22.3,778.00,736.5
2020-09-19,10:05:00,DRY,2.75,18.45,22.0,778.00,753.8
2020-09-19,10:10:00,DRY,3.37,18.53,21.3,778.00,769.6
2020-09-19,10:15:00,DRY,2.65,18.45,21.0,778.00,786.6
2020-09-19,10:20:00,DRY,3.33,18.60,18.7,778.00,800.9
2020-09-19,10:25:00,DRY,3.15,18.85,18.5,778.00,814.8
2020-09-19,10:30:00,DRY,1.90,18.83,19.7,778.00,830.5
2020-09-19,10:35:00,DRY,3.90,19.00,16.0,778.00,843.0
2020-09-19,10:40:00,DRY,2.50,19.10,17.0,778.00,857.8
2020-09-19,10:45:00,DRY,4.20,19.20,17.0,778.00,871.3
2020-09-19,10:50:00,DRY,2.20,19.43,16.0,778.00,882.5
2020-09-19,10:55:00,DRY,3.05,19.40,16.5,778.00,895.7
2020-09-19,11:00:00,DRY,3.43,19.73,17.0,778.00,906.9
2020-09-19,11:05:00,DRY,1.05,19.50,17.0,778.00,918.0
2020-09-19,11:10:00,DRY,1.60,20.00,18.0,778.00,930.2
2020-09-19,11:15:00,DRY,2.15,20.00,17.5,778.00,941.2
2020-09-19,11:20:00,DRY,4.10,19.83,16.7,778.00,951.4
2020-09-19,11:25:00,DRY,2.35,19.75,16.5,778.00,962.3
2020-09-19,11:30:00,DRY,3.30,19.93,17.0,778.00,970.1
2020-09-19,11:35:00,DRY,2.50,19.50,17.5,778.00,978.8
2020-09-19,11:40:00,DRY,3.77,19.80,17.0,778.00,986.9
2020-09-19,11:45:00,DRY,3.55,19.80,18.5,778.00,995.2
2020-09-19,11:50:00,DRY,2.53,19.90,19.7,778.00,1005.2
2020-09-19,11:55:00,DRY,0.60,20.20,20.0,778.00,1011.1
2020-09-19,12:00:00,DRY,0.83,20.00,20.7,778.00,1017.7
2020-09-19,12:05:00,DRY,0.85,20.10,22.0,778.00,1023.0
2020-09-19,12:10:00,DRY,1.53,20.17,24.0,778.00,1027.8
2020-09-19,12:15:00,DRY,1.75,20.20,22.5,778.00,1033.3
2020-09-19,12:20:00,DRY,2.47,20.17,24.0,778.00,1037.9
2020-09-19,12:25:00,DRY,3.50,20.30,24.0,778.00,1042.0
2020-09-19,12:30:00,DRY,2.37,20.10,22.3,778.00,1043.1
2020-09-19,12:35:00,DRY,1.60,20.05,22.5,778.00,1048.5
2020-09-19,12:40:00,DRY,2.47,19.80,22.7,777.67,1050.6
2020-09-19,12:45:00,DRY,2.10,20.15,23.5,777.50,1052.8
2020-09-19,12:50:00,DRY,1.83,19.97,20.7,778.00,1054.7
2020-09-19,12:55:00,DRY,2.25,20.10,18.0,778.00,1055.8
2020-09-19,13:00:00,DRY,1.47,20.20,20.0,778.00,1056.5
2020-09-19,13:05:00,DRY,3.65,20.45,17.5,778.00,1057.2
2020-09-19,13:10:00,DRY,1.43,20.37,19.7,778.00,1056.3
2020-09-19,13:15:00,DRY,2.65,20.00,18.5,778.00,1056.2
2020-09-19,13:20:00,DRY,2.77,20.47,18.7,778.00,1055.0
2020-09-19,13:25:00,DRY,1.90,20.40,25.0,777.50,1050.6
2020-09-19,13:30:00,DRY,2.90,20.40,20.0,777.00,1051.5
2020-09-19,13:35:00,DRY,1.70,20.10,19.0,777.00,1047.3
2020-09-19,13:40:00,DRY,2.37,20.10,19.3,777.33,1043.9
2020-09-19,13:45:00,DRY,3.65,19.85,17.5,777.00,1040.3
2020-09-19,13:50:00,DRY,3.37,19.80,17.0,777.00,1034.9
2020-09-19,13:55:00,DRY,3.95,19.80,18.5,777.50,1030.5
2020-09-19,14:00:00,DRY,3.00,20.07,16.3,777.00,1023.7
2020-09-19,14:05:00,DRY,2.80,20.15,15.5,777.00,1017.5
2020-09-19,14:10:00,DRY,3.77,19.93,15.0,777.00,1011.3
2020-09-19,14:15:00,DRY,2.85,20.05,15.5,777.00,1003.2
2020-09-19,14:20:00,DRY,3.70,20.20,13.0,777.00,996.5
2020-09-19,14:25:00,DRY,3.65,20.25,13.5,777.00,988.0
2020-09-19,14:30:00,DRY,3.77,20.23,13.0,777.00,979.9
2020-09-19,14:35:00,DRY,3.45,20.40,12.5,777.00,969.9
2020-09-19,14:40:00,DRY,3.03,20.20,14.7,777.00,960.8
2020-09-19,14:45:00,DRY,1.95,20.30,17.0,777.00,949.9
2020-09-19,14:50:00,DRY,2.23,20.60,17.7,777.00,938.5
2020-09-19,14:55:00,DRY,2.75,20.50,16.0,777.00,929.1
2020-09-19,15:00:00,DRY,4.43,20.40,15.0,777.00,916.1
2020-09-19,15:05:00,DRY,2.95,20.40,10.5,777.00,905.5
2020-09-19,15:10:00,DRY,5.00,20.43,12.3,777.00,892.2
2020-09-19,15:15:00,DRY,2.90,20.40,10.0,777.00,876.6
2020-09-19,15:20:00,DRY,5.00,20.43,12.0,777.00,866.1
2020-09-19,15:25:00,DRY,4.95,19.90,12.5,777.00,852.0
2020-09-19,15:30:00,DRY,4.03,20.33,13.7,777.00,836.9
2020-09-19,15:35:00,DRY,4.55,20.40,13.0,777.00,823.0
2020-09-19,15:40:00,DRY,3.57,20.23,14.0,777.00,806.1
2020-09-19,15:45:00,DRY,4.70,19.95,13.5,777.00,790.0
2020-09-19,15:50:00,DRY,2.90,20.13,14.0,777.00,775.9
2020-09-19,15:55:00,DRY,4.15,19.90,14.5,777.00,758.0
2020-09-19,16:00:00,DRY,3.63,20.27,13.3,777.00,741.4
2020-09-19,16:05:00,DRY,2.50,20.15,13.0,777.00,723.1
2020-09-19,16:10:00,DRY,4.50,20.03,11.7,777.00,706.1
2020-09-19,16:15:00,DRY,4.00,20.15,11.5,777.00,686.3
2020-09-19,16:20:00,DRY,4.43,19.77,12.7,777.00,668.8
2020-09-19,16:25:00,DRY,5.15,19.70,12.5,777.00,649.9
2020-09-19,16:30:00,DRY,3.93,19.80,12.3,777.00,630.9
2020-09-19,16:35:00,DRY,4.30,19.65,13.0,777.00,612.1
2020-09-19,16:40:00,DRY,4.27,19.90,12.7,777.00,594.4
2020-09-19,16:45:00,DRY,5.55,19.90,11.0,777.00,570.0
2020-09-19,16:50:00,DRY,3.40,19.67,11.7,777.00,549.7
2020-09-19,16:55:00,DRY,5.85,19.75,13.0,777.00,529.3
2020-09-19,17:00:00,DRY,4.20,19.60,12.0,777.00,506.6
2020-09-19,17:05:00,DRY,3.75,19.90,11.5,777.00,484.8
2020-09-19,17:10:00,DRY,4.23,19.90,13.3,777.00,465.1
2020-09-19,17:15:00,DRY,3.85,19.60,12.5,777.00,444.0
2020-09-19,17:20:00,DRY,5.77,19.50,11.7,777.00,423.1
2020-09-19,17:25:00,DRY,4.35,19.65,10.5,777.00,403.0
2020-09-19,17:30:00,DRY,3.83,19.50,10.7,777.00,381.2
2020-09-19,17:35:00,DRY,4.15,19.30,11.5,777.00,357.9
2020-09-19,17:40:00,DRY,4.30,19.70,11.0,777.00,336.0
2020-09-19,17:45:00,DRY,4.60,19.70,10.0,777.00,314.6
2020-09-19,17:50:00,DRY,4.07,19.67,10.0,777.00,292.3
2020-09-19,17:55:00,DRY,5.40,19.65,9.5,777.00,270.5
2020-09-19,18:00:00,DRY,4.57,19.17,10.0,777.00,249.3
2020-09-19,18:05:00,DRY,5.85,19.25,9.5,777.00,228.1
2020-09-19,18:10:00,DRY,2.90,19.13,9.7,777.00,207.2
2020-09-19,18:15:00,DRY,3.60,18.95,12.0,777.00,185.2
2020-09-19,18:20:00,DRY,4.77,18.80,11.0,777.00,163.6
2020-09-19,18:25:00,DRY,2.45,18.70,10.5,777.00,63.1
2020-09-19,18:30:00,DRY,5.17,18.60,10.3,777.00,54.7
2020-09-19,18:35:00,DRY,4.55,18.50,9.5,778.00,49.0
2020-09-19,18:40:00,DRY,5.43,18.43,12.7,778.00,43.2
2020-09-19,18:45:00,DRY,4.55,18.20,11.5,777.50,38.2
2020-09-19,18:50:00,DRY,4.47,18.10,11.0,778.00,31.4
2020-09-19,18:55:00,DRY,3.65,17.90,11.5,778.00,25.4
2020-09-19,19:00:00,DRY,3.13,17.73,12.0,778.00,18.3
2020-09-19,19:05:00,DRY,4.15,17.70,10.0,778.00,11.8
2020-09-19,19:10:00,DRY,4.03,17.73,13.7,778.00,7.7
2020-09-19,19:15:00,DRY,3.40,17.70,11.0,778.00,5.3
2020-09-19,19:20:00,DRY,2.97,17.67,9.7,778.00,3.8
2020-09-19,19:25:00,DRY,1.20,17.55,9.0,778.00,2.4
2020-09-19,19:30:00,DRY,2.77,17.47,10.0,778.00,1.5
2020-09-19,19:35:00,DRY,1.90,17.60,12.0,778.00,1.8
2020-09-19,19:40:00,DRY,2.27,17.57,10.3,778.00,1.4
2020-09-19,19:45:00,DRY,3.25,17.55,12.5,778.00,1.6
2020-09-19,19:50:00,DRY,2.87,17.67,13.0,778.00,1.4
2020-09-19,19:55:00,DRY,4.25,17.65,13.5,778.00,1.0
2020-09-19,20:00:00,DRY,2.83,17.73,12.7,778.00,1.3
2020-09-19,20:05:00,DRY,2.35,17.70,13.5,778.00,1.8
2020-09-19,20:10:00,DRY,2.77,17.67,14.7,778.00,1.9
2020-09-19,20:15:00,DRY,1.95,17.70,18.5,778.00,1.5
2020-09-19,20:20:00,DRY,2.83,17.70,17.3,778.00,1.4
2020-09-19,20:25:00,DRY,2.45,17.65,19.5,778.00,1.4
2020-09-19,20:30:00,DRY,2.43,17.63,18.7,778.00,1.1
2020-09-19,20:35:00,DRY,2.40,17.65,16.5,778.00,1.7
2020-09-19,20:40:00,DRY,3.60,17.63,22.3,778.00,1.2
2020-09-19,20:45:00,DRY,2.20,17.60,22.0,778.00,1.5
2020-09-19,20:50:00,DRY,2.90,17.57,20.0,778.00,1.5
2020-09-19,20:55:00,DRY,3.15,17.50,22.5,778.00,2.0
2020-09-19,21:00:00,DRY,2.73,17.50,23.7,778.00,1.9
2020-09-19,21:05:00,DRY,4.50,17.55,21.0,778.00,1.1
2020-09-19,21:10:00,DRY,3.33,17.47,18.0,778.00,1.2
2020-09-19,21:15:00,DRY,1.95,17.40,18.5,778.00,1.9
2020-09-19,21:20:00,DRY,3.13,17.43,24.7,778.00,1.5
2020-09-19,21:25:00,DRY,3.50,17.55,25.5,778.00,1.1
2020-09-19,21:30:00,DRY,3.03,17.57,27.3,778.33,1.2
2020-09-19,21:35:00,DRY,1.60,17.60,28.5,778.00,0.8
2020-09-19,21:40:00,DRY,3.07,17.50,27.0,779.00,1.7
2020-09-19,21:45:00,DRY,3.25,17.45,26.5,778.50,0.6
2020-09-19,21:50:00,DRY,3.07,17.50,28.7,778.67,0.9
2020-09-19,21:55:00,DRY,2.70,17.75,30.0,779.00,0.7
2020-09-19,22:00:00,DRY,3.07,17.63,29.7,779.00,1.2
2020-09-19,22:05:00,DRY,3.50,17.55,30.0,778.50,1.4
2020-09-19,22:10:00,DRY,4.33,17.63,30.0,779.00,1.2
2020-09-19,22:15:00,DRY,2.25,17.60,31.5,779.00,1.9
2020-09-19,22:20:00,DRY,4.57,17.63,30.7,779.00,1.2
2020-09-19,22:25:00,DRY,1.65,17.45,29.5,779.00,1.1
2020-09-19,22:30:00,DRY,2.40,17.27,27.7,779.00,1.2
2020-09-19,22:35:00,DRY,3.45,17.20,28.5,779.00,0.9
2020-09-19,22:40:00,DRY,4.03,17.03,28.3,779.00,1.1
2020-09-19,22:45:00,DRY,3.70,17.05,26.5,779.00,1.2
2020-09-19,22:50:00,DRY,3.07,16.83,22.7,779.00,1.0
2020-09-19,22:55:00,DRY,4.55,16.85,21.5,779.00,0.9
2020-09-19,23:00:00,DRY,3.27,16.70,21.7,778.67,0.7
2020-09-19,23:05:00,DRY,3.00,16.70,22.5,779.00,1.2
2020-09-19,23:10:00,DRY,3.63,16.67,21.7,779.00,1.6
2020-09-19,23:15:00,DRY,3.45,16.70,20.0,779.00,1.4
2020-09-19,23:20:00,DRY,3.27,16.70,22.7,778.67,1.2
2020-09-19,23:25:00,DRY,3.50,16.60,21.5,779.00,0.9
2020-09-19,23:30:00,DRY,3.10,16.57,24.3,778.67,1.1
2020-09-19,23:35:00,DRY,4.15,16.60,25.0,778.50,1.2
2020-09-19,23:40:00,DRY,3.67,16.57,24.7,778.00,1.1
2020-09-19,23:45:00,DRY,5.15,16.55,26.0,778.00,1.1
2020-09-19,23:50:00,DRY,3.23,16.53,26.3,778.00,1.5
2020-09-19,23:55:00,DRY,1.85,16.50,27.5,778.00,0.4
2020-09-20,00:00:00,DRY,2.77,16.53,30.3,778.00,1.1
2020-09-20,00:05:00,DRY,1.35,16.55,30.5,778.50,1.9
2020-09-20,00:10:00,DRY,2.17,16.50,32.0,778.00,1.4
2020-09-20,00:15:00,DRY,1.85,16.50,33.0,778.00,1.6
2020-09-20,00:20:00,DRY,2.53,16.50,34.7,778.00,1.8
2020-09-20,00:25:00,DRY,3.30,16.60,35.5,778.00,1.0
2020-09-20,00:30:00,DRY,1.87,16.50,34.7,778.00,0.9
2020-09-20,00:35:00,DRY,1.70,16.55,34.5,778.00,1.3
2020-09-20,00:40:00,DRY,3.23,16.67,36.7,778.00,1.3
2020-09-20,00:45:00,DRY,2.90,16.75,36.5,778.00,0.8
2020-09-20,00:50:00,DRY,1.73,16.77,38.3,778.00,0.7
2020-09-20,00:55:00,DRY,2.35,16.95,38.0,778.00,1.0
2020-09-20,01:00:00,DRY,2.07,17.07,38.3,778.00,0.7
2020-09-20,01:05:00,DRY,1.50,17.05,38.5,778.00,0.3
2020-09-20,01:10:00,DRY,2.40,17.00,38.0,778.00,0.9
2020-09-20,01:15:00,DRY,2.95,17.10,38.5,778.00,1.0
2020-09-20,01:20:00,DRY,1.83,17.07,38.3,778.00,1.6
2020-09-20,01:25:00,DRY,3.00,17.25,37.0,778.00,1.1
2020-09-20,01:30:00,DRY,2.10,17.20,38.0,778.00,0.2
2020-09-20,01:35:00,DRY,1.55,17.20,38.0,778.00,0.2
2020-09-20,01:40:00,DRY,2.10,17.30,37.3,778.00,1.3
2020-09-20,01:45:00,DRY,2.80,17.35,37.0,778.00,0.9
2020-09-20,01:50:00,DRY,2.20,17.37,37.0,778.00,0.8
2020-09-20,01:55:00,DRY,4.45,17.45,36.5,778.00,1.1
2020-09-20,02:00:00,DRY,4.43,17.40,36.7,778.00,1.2
2020-09-20,02:05:00,DRY,2.00,17.40,36.5,778.00,1.0
2020-09-20,02:10:00,DRY,2.40,17.43,36.3,778.00,0.9
2020-09-20,02:15:00,DRY,1.95,17.45,36.0,778.00,1.4
2020-09-20,02:20:00,DRY,2.07,17.57,34.7,778.00,1.2
2020-09-20,02:25:00,DRY,1.85,17.50,35.5,778.00,1.7
2020-09-20,02:30:00,DRY,4.00,17.50,34.7,778.00,0.8
2020-09-20,02:35:00,DRY,3.20,17.45,35.0,778.00,1.4
2020-09-20,02:40:00,DRY,3.93,17.60,34.0,778.00,0.8
2020-09-20,02:45:00,DRY,5.15,17.75,31.0,778.00,0.6
2020-09-20,02:50:00,DRY,2.47,17.83,31.3,778.00,1.5
2020-09-20,02:55:00,DRY,3.40,17.80,32.0,778.00,1.3
2020-09-20,03:00:00,DRY,3.00,17.80,31.7,778.00,1.5
2020-09-20,03:05:00,DRY,2.45,17.70,31.5,778.00,0.8
2020-09-20,03:10:00,DRY,2.37,17.73,31.7,778.00,0.6
2020-09-20,03:15:00,DRY,1.25,17.80,30.5,778.00,1.5
2020-09-20,03:20:00,DRY,1.93,17.87,31.0,777.33,1.0
2020-09-20,03:25:00,DRY,2.50,17.75,32.5,777.00,1.6
2020-09-20,03:30:00,DRY,1.63,17.60,33.7,777.00,0.8
2020-09-20,03:35:00,DRY,3.50,17.35,35.5,777.00,1.1
2020-09-20,03:40:00,DRY,2.53,17.30,35.0,777.67,1.3
2020-09-20,03:45:00,DRY,1.65,17.40,34.5,777.00,0.7
2020-09-20,03:50:00,DRY,2.93,17.10,36.7,777.00,1.8
2020-09-20,03:55:00,DRY,2.05,17.00,37.5,777.00,1.3
2020-09-20,04:00:00,DRY,1.87,17.00,37.0,777.00,1.4
2020-09-20,04:05:00,DRY,3.00,16.90,37.5,777.00,1.2
2020-09-20,04:10:00,DRY,2.77,17.07,37.0,777.33,0.7
2020-09-20,04:15:00,DRY,2.50,17.10,36.5,777.00,0.9
2020-09-20,04:20:00,DRY,1.47,17.03,37.7,777.00,1.7
2020-09-20,04:25:00,DRY,2.65,16.95,37.5,777.00,2.1
2020-09-20,04:30:00,DRY,2.73,16.97,36.7,777.33,1.1
2020-09-20,04:35:00,DRY,2.50,17.00,37.5,777.00,0.9
2020-09-20,04:40:00,DRY,2.73,17.03,36.3,777.00,1.1
2020-09-20,04:45:00,DRY,2.45,17.15,33.5,777.00,1.2
2020-09-20,04:50:00,DRY,3.10,17.23,35.3,777.00,1.0
2020-09-20,04:55:00,DRY,3.15,16.95,36.5,777.00,1.6
2020-09-20,05:00:00,DRY,2.63,17.10,35.3,778.00,1.5
2020-09-20,05:05:00,DRY,2.25,17.15,34.5,777.50,1.0
2020-09-20,05:10:00,DRY,3.00,17.07,35.3,777.33,0.9
2020-09-20,05:15:00,DRY,2.40,17.10,35.5,777.00,0.7
2020-09-20,05:20:00,DRY,3.37,17.20,35.7,778.00,1.0
2020-09-20,05:25:00,DRY,2.85,17.05,36.0,777.00,1.6
2020-09-20,05:30:00,DRY,1.87,17.07,35.7,778.00,0.7
2020-09-20,05:35:00,DRY,2.55,17.15,35.0,778.00,1.9
2020-09-20,05:40:00,DRY,3.07,17.13,34.0,777.67,1.8
2020-09-20,05:45:00,DRY,3.00,17.30,34.5,778.00,1.5
2020-09-20,05:50:00,DRY,2.50,17.03,34.3,777.67,1.4
2020-09-20,05:55:00,DRY,1.65,16.95,35.5,778.00,1.0
2020-09-20,06:00:00,DRY,3.77,17.00,34.7,778.00,0.9
2020-09-20,06:05:00,DRY,2.50,17.05,36.0,778.00,1.4
2020-09-20,06:10:00,DRY,2.30,17.07,34.7,778.00,0.7
2020-09-20,06:15:00,DRY,2.75,17.00,34.5,778.00,1.5
2020-09-20,06:20:00,DRY,2.33,16.93,35.3,778.00,1.5
2020-09-20,06:25:00,DRY,2.25,17.00,34.0,778.00,1.6
2020-09-20,06:30:00,DRY,3.03,17.10,33.3,778.00,1.4
2020-09-20,06:35:00,DRY,2.25,17.10,33.0,778.00,1.2
2020-09-20,06:40:00,DRY,2.10,17.07,33.0,778.00,0.9
2020-09-20,06:45:00,DRY,2.05,17.00,33.5,778.00,1.2
2020-09-20,06:50:00,DRY,2.20,17.13,33.0,778.00,3.0
2020-09-20,06:55:00,DRY,1.35,17.10,33.5,778.00,5.0
2020-09-20,07:00:00,DRY,1.93,16.97,33.0,778.00,6.2
2020-09-20,07:05:00,DRY,2.20,17.05,33.5,778.00,10.8
2020-09-20,07:10:00,DRY,2.50,16.97,34.0,778.00,19.1
2020-09-20,07:15:00,DRY,1.90,16.85,34.0,778.00,26.8
2020-09-20,07:20:00,DRY,1.73,16.80,34.3,778.00,37.4
2020-09-20,07:25:00,DRY,2.45,16.85,35.0,778.00,47.9
2020-09-20,07:30:00,DRY,2.53,16.80,35.3,778.00,58.7
2020-09-20,07:35:00,DRY,2.65,16.90,35.0,778.00,68.7
2020-09-20,07:40:00,DRY,2.40,16.87,35.0,778.00,79.3
2020-09-20,07:45:00,DRY,3.35,16.90,34.5,778.00,90.3
2020-09-20,07:50:00,DRY,2.10,16.90,34.7,778.00,100.4
2020-09-20,07:55:00,DRY,0.75,16.90,35.0,778.00,110.2
2020-09-20,08:00:00,DRY,2.33,16.90,35.7,778.00,142.5
2020-09-20,08:05:00,DRY,1.90,16.95,35.5,778.00,201.8
2020-09-20,08:10:00,DRY,1.40,17.03,35.0,778.00,225.2
2020-09-20,08:15:00,DRY,1.75,17.05,36.0,778.00,248.7
2020-09-20,08:20:00,DRY,2.47,17.07,36.3,778.00,272.7
2020-09-20,08:25:00,DRY,2.95,17.05,36.5,778.00,291.3
2020-09-20,08:30:00,DRY,2.53,17.10,36.0,778.00,316.9
2020-09-20,08:35:00,DRY,1.25,17.15,36.0,778.00,338.2
2020-09-20,08:40:00,DRY,1.20,17.30,35.7,778.00,358.8
2020-09-20,08:45:00,DRY,2.10,17.45,34.5,778.00,383.1
2020-09-20,08:50:00,DRY,2.80,17.80,32.7,778.00,404.6
2020-09-20,08:55:00,DRY,2.05,18.05,31.5,778.00,423.5
2020-09-20,09:00:00,DRY,2.33,18.27,31.3,778.00,445.0
2020-09-20,09:05:00,DRY,0.60,18.20,32.5,778.00,466.1
2020-09-20,09:10:00,DRY,2.57,18.30,32.0,778.00,490.4
2020-09-20,09:15:00,DRY,1.60,18.35,32.0,778.00,509.7
2020-09-20,09:20:00,DRY,1.70,18.45,31.0,778.00,529.1
2020-09-20,09:25:00,DRY,2.15,18.45,32.0,778.00,549.1
2020-09-20,09:30:00,DRY,2.33,18.67,30.3,778.00,567.9
2020-09-20,09:35:00,DRY,1.85,18.80,30.0,778.00,588.9
2020-09-20,09:40:00,DRY,3.23,19.00,28.7,778.00,606.6
2020-09-20,09:45:00,DRY,2.75,19.05,28.5,778.00,625.7
2020-09-20,09:50:00,DRY,2.30,19.20,28.3,778.00,640.4
2020-09-20,09:55:00,DRY,3.05,19.40,28.0,778.50,660.0
2020-09-20,10:00:00,DRY,2.83,19.43,28.0,778.33,683.4
2020-09-20,10:05:00,DRY,3.65,19.65,28.0,779.00,695.3
2020-09-20,10:10:00,DRY,1.73,19.67,27.0,778.33,717.5
2020-09-20,10:15:00,DRY,2.15,19.60,28.0,779.00,733.2
2020-09-20,10:20:00,DRY,2.27,19.77,27.3,778.67,746.9
2020-09-20,10:25:00,DRY,2.85,19.75,27.0,779.00,760.8
2020-09-20,10:30:00,DRY,2.87,20.23,28.3,779.00,778.0
2020-09-20,10:35:00,DRY,2.50,20.20,27.5,779.00,792.9
2020-09-20,10:40:00,DRY,2.83,19.93,27.0,779.00,804.7
2020-09-20,10:45:00,DRY,2.70,19.95,27.0,778.50,819.2
2020-09-20,10:50:00,DRY,2.93,20.03,27.0,779.00,835.0
2020-09-20,10:55:00,DRY,1.50,20.35,27.0,779.00,847.5
2020-09-20,11:00:00,DRY,3.47,20.33,27.3,779.00,861.4
2020-09-20,11:05:00,DRY,3.85,20.65,26.0,779.00,877.2
2020-09-20,11:10:00,DRY,1.80,20.67,26.3,779.00,884.3
2020-09-20,11:15:00,DRY,2.65,20.95,26.0,779.00,896.1
2020-09-20,11:20:00,DRY,1.80,20.90,25.7,779.00,909.4
2020-09-20,11:25:00,DRY,3.80,21.00,25.5,779.00,917.8
2020-09-20,11:30:00,DRY,3.13,20.87,25.0,779.00,927.1
2020-09-20,11:35:00,DRY,3.90,20.90,26.0,778.50,941.3
2020-09-20,11:40:00,DRY,3.17,21.10,25.7,778.00,948.6
2020-09-20,11:45:00,DRY,1.50,21.40,25.5,779.00,958.0
2020-09-20,11:50:00,DRY,2.60,21.27,25.7,778.33,964.2
2020-09-20,11:55:00,DRY,1.30,21.20,25.5,778.50,970.8
2020-09-20,12:00:00,DRY,2.57,21.37,25.3,778.67,980.4
2020-09-20,12:05:00,DRY,1.95,21.40,24.5,778.00,988.0
2020-09-20,12:10:00,DRY,2.63,21.17,24.7,778.00,991.2
2020-09-20,12:15:00,DRY,4.10,21.30,25.0,778.00,995.4
2020-09-20,12:20:00,DRY,2.60,21.40,24.7,778.00,1003.4
2020-09-20,12:25:00,DRY,1.15,21.90,25.5,778.50,1006.9
2020-09-20,12:30:00,DRY,2.20,21.60,24.7,778.67,1011.9